Terminal Aerodrome Forecast
Issued by NWS

Home | Current Version | Previous Version | Graphics & Text | Print | Product List | Glossary On
Versions: 1 2 3 4 5 6 7 8 9 10 11 12
000
FTUS45 KGGW 192300
TAFSDY
TAF
KSDY 192320Z 2000/2024 15006KT P6SM VCSH SCT060 BKN120
     FM200400 VRB06KT P6SM SCT250
     FM201800 25010KT P6SM VCSH BKN050
      AMD LTD TO CLD VIS AND WIND=

USA.gov is the U.S. government's official web portal to all federal, state and local government web resources and services.